Location: Holcomb Observatory
(44.4922°N, 73.1654°W)
Time: 13:11:10
(UTC-05:00)

Daily predictions for brighter satellites

Satellite Brightness Start Highest point End
(mag) Time Altitude Azimuth Time Altitude Azimuth Time Altitude Azimuth
CORIOLIS 4.2 17:07:18 10° SSE 17:12:35 67° ENE 17:17:55 10° N
ATLAS 5 CENTAUR R/B 4.3 17:12:40 10° N 17:13:43 10° N 17:14:47 10° NNE
Meteor 2-2 Rocket 4.3 17:08:07 10° N 17:13:43 63° ENE 17:19:18 10° SSE
Thor Agena Rocket 3.8 17:09:55 10° NNE 17:15:04 53° E 17:20:06 10° S
CENTAUR R/B 2.7 17:10:26 10° SW 17:16:33 84° NW 17:23:33 10° NE
Lacrosse 5 3.3 17:12:52 10° W 17:17:13 28° NNW 17:21:35 10° NE
SPOT 3 Rocket 3.5 17:12:56 10° SSE 17:18:03 76° ENE 17:23:15 10° N
Cosmos 2333 Rocket 2.6 17:14:48 10° S 17:20:07 44° ESE 17:25:28 10° NE
Meteor 1-21 Rocket 4.5 17:15:55 10° S 17:21:50 85° W 17:27:43 10° N
Cosmos 1500 Rocket 3.8 17:18:00 10° SSE 17:22:07 46° E 17:26:18 10° NNE
Cosmos 841 Rocket 3.5 17:17:21 10° SSW 17:22:37 79° ESE 17:27:55 10° NNE
Cosmos 1634 Rocket 4.0 17:19:08 10° N 17:25:16 61° ENE 17:31:21 10° SSE
Cosmos 2219 Rocket 2.3 17:20:04 10° S 17:25:38 63° ESE 17:31:12 10° NNE
CZ-2C R/B 2.8 17:23:00 10° S 17:27:58 70° WSW 17:32:48 10° NNW
SJ-6B 4.3 17:26:52 10° ESE 17:29:37 18° ENE 17:32:25 10° NNE
Cosmos 2322 Rocket 4.5 17:26:05 10° W 17:29:45 17° NW 17:33:25 10° N
Abrixas 4.3 17:27:46 10° S 17:29:55 19° SE 17:32:05 10° E
NOSS 0 Rocket 4.2 17:24:12 10° S 17:30:11 51° ESE 17:36:11 10° NE
Cosmos 2278 Rocket 2.2 17:27:21 10° NNW 17:33:00 61° ENE 17:38:37 10° SE
Cosmos 2084 3.2 17:32:17 10° SSW 17:36:07 66° SE 17:39:50 10° NE
IDEFIX/ARIANE 42P 3.4 17:33:19 10° S 17:38:25 57° W 17:43:36 10° NNW
Cosmos 1626 3.9 17:38:18 10° ESE 17:40:17 14° E 17:40:42 14° ENE
CZ-4C R/B 4.4 17:37:06 10° NNW 17:40:23 14° N 17:43:51 10° NNE
Meteor 1-27 4.5 17:37:30 10° N 17:43:10 51° ENE 17:48:50 10° SSE
COSMOS 2441 4.4 17:38:24 10° SSE 17:43:17 88° WSW 17:48:10 10° NNW
Cosmos 1455 3.7 17:42:22 10° NNE 17:44:43 15° ENE 17:45:14 15° E
Cosmos 1844 4.2 17:39:32 10° NNW 17:45:16 67° WSW 17:50:59 10° SSE
Cosmos 1674 4.0 17:43:01 10° SSW 17:46:40 42° WNW 17:50:22 10° N
Cosmos 1461 4.4 17:45:17 10° SSE 17:48:08 18° ESE 17:49:29 16° E
Cosmos 2058 3.2 17:48:08 10° SSE 17:52:03 45° E 17:55:58 10° NNE
Cosmos 332 Rocket 4.3 17:49:02 10° SSW 17:53:48 62° WNW 17:58:39 10° NNE
Cosmos 1726 2.1 17:50:50 10° N 17:54:37 89° E 17:58:23 10° S
OTV 4 3.2 17:53:49 10° SW 17:55:32 14° SSW 17:57:15 10° SSE
Cosmos 1340 Rocket 3.2 17:53:32 10° SSE 17:57:12 38° E 18:00:48 10° NNE
Aureole 2 Rocket 3.0 17:55:37 10° S 17:59:09 44° ESE 18:02:03 16° NE
Cosmos 2237 Rocket 2.1 17:53:39 10° SSW 17:59:14 71° ESE 18:04:52 10° NNE
COSMO-SKYMED 1 2.5 17:56:13 10° NNE 18:00:36 73° ESE 18:04:54 10° S
SL-14 R/B 3.2 17:57:04 10° S 18:00:58 78° E 18:04:58 10° N
COSMOS 2428 3.9 17:56:03 10° SW 18:01:26 42° WNW 18:06:51 10° NNE
Cosmos 1707 Rocket 4.1 17:57:36 10° N 18:01:35 34° ENE 18:05:31 10° SE
Cosmos 2369 Rocket 4.0 17:59:51 10° NNE 18:02:00 12° NE 18:02:04 12° NE
YAOGAN 1 4.2 17:58:22 10° SSW 18:02:24 38° W 18:06:28 10° NNW
Cosmos 1300 2.9 18:00:24 10° NNW 18:04:14 72° W 18:08:02 10° S
Cosmos 1484 Rocket 3.3 18:00:56 10° S 18:04:49 63° W 18:08:48 10° NNW
Resurs 01 Rocket 2.7 18:03:11 19° E 18:04:52 24° ENE 18:08:24 10° NNE
SL-16 R/B 2.8 18:00:26 10° S 18:05:29 35° ESE 18:08:54 19° NE
Cosmos 44 3.4 18:02:39 10° SSW 18:07:55 85° ESE 18:12:01 16° NE
ALOS 3.0 18:05:45 10° SE 18:09:45 29° ENE 18:13:46 10° N
Cosmos 372 Rocket 4.0 18:07:53 10° NNW 18:13:00 80° WSW 18:18:06 10° SSE
Cosmos 1666 Rocket 4.1 18:10:00 10° SSE 18:13:53 33° E 18:15:33 25° NE
Cosmos 2297 3.7 18:08:44 10° NNW 18:14:24 63° ENE 18:20:04 10° SE
Cosmos 1356 Rocket 4.0 18:11:01 10° SSE 18:14:35 32° E 18:15:14 30° ENE
Cosmos 2279 Rocket 3.9 18:09:00 10° N 18:15:15 85° E 18:21:30 10° S
Cosmos 371 Rocket 4.3 18:18:41 10° SW 18:23:16 44° WNW 18:27:54 10° N
Cosmos 540 Rocket 3.7 18:18:20 10° SSW 18:23:29 71° WNW 18:28:41 10° NNE
USA 215 3.2 18:18:46 10° SE 18:25:21 89° NNE 18:31:56 10° NW
Timation 1 Rocket 4.3 18:22:32 10° NNW 18:28:37 88° ENE 18:34:38 10° SSE
Cosmos 2151 3.8 18:24:31 10° SSW 18:28:37 50° WNW 18:32:44 10° N
Meteor 1-28 Rocket 3.3 18:25:05 10° N 18:28:48 74° WNW 18:32:30 10° SSW
SL-19 R/B 4.3 18:23:42 10° SE 18:29:26 58° ENE 18:34:57 10° N
Lacrosse 5 rocket 2.0 18:30:36 10° WNW 18:34:17 50° SW 18:37:21 15° SSE
Nadezhda 4 Rocket 4.0 18:31:02 10° S 18:37:09 61° E 18:43:22 10° NNE
Cosmos 2242 Rocket 4.4 18:33:13 10° N 18:36:02 32° NNE 18:36:02 32° NNE
FREGAT/IRIS 2.6 18:35:59 10° S 18:39:02 82° WSW 18:42:07 10° NNW
Orbus 7S? 4.4 18:37:12 10° NW 18:41:09 56° NE 18:44:22 31° ESE
FENGYUN 3A 3.5 18:42:13 10° SSE 18:47:31 65° ENE 18:52:51 10° N
Cosmos 1805 Rocket 3.9 18:48:06 10° SSW 18:52:31 65° W 18:56:45 11° N
FengYun 1-2 T 4.1 18:49:10 10° SSE 18:54:44 80° ENE 19:00:17 10° NNW
Cosmos 1092 Rocket 3.9 18:50:14 10° S 18:56:27 63° E 19:02:43 10° NNE
ATLAS 5 CENTAUR R/B 4.0 18:56:54 10° NNW 18:59:55 18° NNE 18:59:55 18° NNE
Spot 2 Rocket 3.3 18:56:10 10° SSE 19:01:12 82° ENE 19:06:16 10° NNW
Lacrosse 5 3.6 18:57:58 10° NW 19:01:39 20° N 19:01:55 20° N
SJ-6B 4.0 19:00:03 10° S 19:03:57 44° W 19:07:55 10° NNW
Cosmos 304 Rocket 4.3 18:59:39 10° SW 19:04:24 58° WNW 19:06:42 29° N
Cosmos 2333 Rocket 3.8 18:59:33 10° WSW 19:04:32 31° NW 19:09:26 11° N
USA 229 DEB 3.8 19:00:04 10° SSW 19:06:38 51° ESE 19:07:08 50° ESE
USA 229 3.8 19:00:11 10° SSW 19:06:45 51° ESE 19:07:11 50° ESE
CENTAUR R/B 4.3 19:02:57 10° W 19:08:20 26° NNW 19:12:44 15° NNE
Lacrosse 4 Rocket 3.0 19:04:21 10° NNW 19:06:09 25° NNW 19:06:09 25° NNW
Cosmos 2219 Rocket 4.2 19:05:34 10° WSW 19:10:02 24° NW 19:14:31 10° N
Sich 1 3.5 19:07:45 10° SSW 19:12:09 61° W 19:13:25 42° NNW
Cosmos 1538 Rocket 4.1 19:07:52 10° SSW 19:13:10 75° WNW 19:14:49 45° N
Cosmos 1626 3.4 19:11:44 10° SSW 19:15:16 40° WNW 19:15:28 39° WNW
Cosmos 1633 Rocket 3.5 19:13:47 10° SSW 19:18:08 60° W 19:18:22 59° WNW
Cosmos 1943 Rocket 4.4 19:15:39 10° N 19:16:15 12° N 19:16:15 12° N
Cosmos 1455 3.6 19:17:04 10° NNW 19:20:36 38° W 19:20:43 38° W
Iridium 4 Rocket 4.3 19:18:44 10° S 19:21:25 34° SSW 19:21:25 34° SSW
Cosmos 1461 4.1 19:22:55 10° SW 19:26:00 40° W 19:26:00 40° W
CZ-4C R/B 4.1 19:26:14 10° NNW 19:30:14 22° NNE 19:30:14 22° NNE
Resurs 01 Rocket 3.0 19:40:43 36° WSW 19:41:08 37° W 19:45:17 10° NNW
Cosmos 2237 Rocket 4.3 19:39:37 10° W 19:43:53 22° NW 19:47:12 14° N
ALOS 3.9 19:42:55 10° SSW 19:47:06 32° W 19:51:18 10° NNW
Cosmos 2369 Rocket 3.9 19:41:47 10° NNW 19:43:53 23° N 19:43:53 23° N
SL-16 R/B 3.4 19:44:18 10° WSW 19:49:33 38° NW 19:50:51 34° NNW
